date,time,press
2013-03-01,00:00,1140.71
2013-03-01,01:00,1143.96
2013-03-01,02:00,1150.47
2013-03-01,03:00,1147.22
2013-03-01,04:00,1148.3
2013-03-01,05:00,1143.96
2013-03-01,06:00,1141.79
2013-03-01,07:00,1145.05
2013-03-01,08:00,1114.66
2013-03-01,09:00,1049.56
2013-03-01,10:00,951.9
2013-03-01,11:00,887.89
2013-03-01,12:00,-999
2013-03-01,13:00,-999
2013-03-01,14:00,-999
2013-03-01,15:00,-999
2013-03-01,16:00,-999
2013-03-01,17:00,-999
2013-03-01,18:00,-999
2013-03-01,19:00,946.48
2013-03-01,20:00,1009.41
2013-03-01,21:00,1041.96
2013-03-01,22:00,1101.64
2013-03-01,23:00,1110.32
2013-03-02,00:00,1134.2
2013-03-02,01:00,1136.37
2013-03-02,02:00,1137.45
2013-03-02,03:00,1139.62
2013-03-02,04:00,1148.3
2013-03-02,05:00,1152.64
2013-03-02,06:00,1150.47
2013-03-02,07:00,1148.3
2013-03-02,08:00,1099.47
2013-03-02,09:00,1025.69
2013-03-02,10:00,933.46
2013-03-02,11:00,920.44
2013-03-02,12:00,-999
2013-03-02,13:00,-999
2013-03-02,14:00,-999
2013-03-02,15:00,-999
2013-03-02,16:00,-999
2013-03-02,17:00,-999
2013-03-02,18:00,-999
2013-03-02,19:00,1017.01
2013-03-02,20:00,1034.37
2013-03-02,21:00,1066.92
2013-03-02,22:00,1047.39
2013-03-02,23:00,1052.82
2013-03-03,00:00,1101.64
2013-03-03,01:00,1128.77
2013-03-03,02:00,1137.45
2013-03-03,03:00,1140.71
2013-03-03,04:00,1140.71
2013-03-03,05:00,1140.71
2013-03-03,06:00,1142.88
2013-03-03,07:00,1137.45
2013-03-03,08:00,1090.79
2013-03-03,09:00,1014.84
2013-03-03,10:00,-999
2013-03-03,11:00,915.01
2013-03-03,12:00,-999
2013-03-03,13:00,-999
2013-03-03,14:00,-999
2013-03-03,15:00,1054.99
2013-03-03,16:00,993.14
2013-03-03,17:00,979.03
2013-03-03,18:00,1163.49
2013-03-03,19:00,-999
2013-03-03,20:00,-999
2013-03-03,21:00,-999
2013-03-03,22:00,-999
2013-03-03,23:00,1051.73
2013-03-04,00:00,1091.88
2013-03-04,01:00,1110.32
2013-03-04,02:00,1116.83
2013-03-04,03:00,1126.6
2013-03-04,04:00,1129.86
2013-03-04,05:00,1114.66
2013-03-04,06:00,1121.18
2013-03-04,07:00,1116.83
2013-03-04,08:00,1113.58
2013-03-04,09:00,1110.32
2013-03-04,10:00,1091.88
2013-03-04,11:00,1084.28
2013-03-04,12:00,1101.64
2013-03-04,13:00,1072.35
2013-03-04,14:00,1074.52
2013-03-04,15:00,1087.54
2013-03-04,16:00,1095.13
2013-03-04,17:00,-999
2013-03-04,18:00,1103.81
2013-03-04,19:00,1116.83
2013-03-04,20:00,1122.26
2013-03-04,21:00,1134.2
2013-03-04,22:00,1141.79
2013-03-04,23:00,1145.05
2013-03-05,00:00,1149.39
2013-03-05,01:00,1149.39
2013-03-05,02:00,1147.22
2013-03-05,03:00,1140.71
2013-03-05,04:00,1129.86
2013-03-05,05:00,1140.71
2013-03-05,06:00,1143.96
2013-03-05,07:00,1153.73
2013-03-05,08:00,1108.15
2013-03-05,09:00,1041.96
2013-03-05,10:00,946.48
2013-03-05,11:00,924.78
2013-03-05,12:00,-999
2013-03-05,13:00,-999
2013-03-05,14:00,-999
2013-03-05,15:00,-999
2013-03-05,16:00,-999
2013-03-05,17:00,-999
2013-03-05,18:00,864.01
2013-03-05,19:00,1006.16
2013-03-05,20:00,1047.39
2013-03-05,21:00,1073.43
2013-03-05,22:00,1110.32
2013-03-05,23:00,1062.58
2013-03-06,00:00,1110.32
2013-03-06,01:00,1112.49
2013-03-06,02:00,1120.09
2013-03-06,03:00,1078.86
2013-03-06,04:00,1082.11
2013-03-06,05:00,1105.98
2013-03-06,06:00,1117.92
2013-03-06,07:00,1078.86
2013-03-06,08:00,1003.99
2013-03-06,09:00,884.63
2013-03-06,10:00,-999
2013-03-06,11:00,-999
2013-03-06,12:00,-999
2013-03-06,13:00,-999
2013-03-06,14:00,-999
2013-03-06,15:00,-999
2013-03-06,16:00,-999
2013-03-06,17:00,-999
2013-03-06,18:00,-999
2013-03-06,19:00,-999
2013-03-06,20:00,932.37
2013-03-06,21:00,1037.62
2013-03-06,22:00,1116.83
2013-03-06,23:00,1083.2
2013-03-07,00:00,1076.69
2013-03-07,01:00,1135.28
2013-03-07,02:00,1110.32
2013-03-07,03:00,1088.62
2013-03-07,04:00,1130.94
2013-03-07,05:00,1047.39
2013-03-07,06:00,1109.24
2013-03-07,07:00,1097.3
2013-03-07,08:00,958.41
2013-03-07,09:00,-999
2013-03-07,10:00,-999
2013-03-07,11:00,-999
2013-03-07,12:00,-999
2013-03-07,13:00,-999
2013-03-07,14:00,-999
2013-03-07,15:00,-999
2013-03-07,16:00,-999
2013-03-07,17:00,-999
2013-03-07,18:00,-999
2013-03-07,19:00,-999
2013-03-07,20:00,-999
2013-03-07,21:00,1002.9
2013-03-07,22:00,890.06
2013-03-07,23:00,867.27
2013-03-08,00:00,-999
2013-03-08,01:00,1050.65
2013-03-08,02:00,899.82
2013-03-08,03:00,1026.77
2013-03-08,04:00,1134.2
2013-03-08,05:00,1069.09
2013-03-08,06:00,1095.13
2013-03-08,07:00,1110.32
2013-03-08,08:00,923.69
2013-03-08,09:00,-999
2013-03-08,10:00,-999
2013-03-08,11:00,-999
2013-03-08,12:00,-999
2013-03-08,13:00,-999
2013-03-08,14:00,-999
2013-03-08,15:00,-999
2013-03-08,16:00,-999
2013-03-08,17:00,-999
2013-03-08,18:00,-999
2013-03-08,19:00,922.61
2013-03-08,20:00,966.01
2013-03-08,21:00,1000.73
2013-03-08,22:00,1049.56
2013-03-08,23:00,1045.22
2013-03-09,00:00,1075.6
2013-03-09,01:00,874.86
2013-03-09,02:00,1094.05
2013-03-09,03:00,1095.13
2013-03-09,04:00,1123.35
2013-03-09,05:00,1136.37
2013-03-09,06:00,1141.79
2013-03-09,07:00,1143.96
2013-03-09,08:00,1092.96
2013-03-09,09:00,988.8
2013-03-09,10:00,915.01
2013-03-09,11:00,-999
2013-03-09,12:00,-999
2013-03-09,13:00,-999
2013-03-09,14:00,-999
2013-03-09,15:00,-999
2013-03-09,16:00,-999
2013-03-09,17:00,-999
2013-03-09,18:00,-999
2013-03-09,19:00,-999
2013-03-09,20:00,941.05
2013-03-09,21:00,1089.71
2013-03-09,22:00,1124.43
2013-03-09,23:00,1135.28
2013-03-10,00:00,1146.13
2013-03-10,01:00,1148.3
2013-03-10,02:00,1153.73
2013-03-10,03:00,1153.73
2013-03-10,04:00,1150.47
2013-03-10,05:00,1145.05
2013-03-10,06:00,1151.56
2013-03-10,07:00,1154.81
2013-03-10,08:00,1113.58
2013-03-10,09:00,1018.09
2013-03-10,10:00,970.35
2013-03-10,11:00,-999
2013-03-10,12:00,-999
2013-03-10,13:00,-999
2013-03-10,14:00,-999
2013-03-10,15:00,-999
2013-03-10,16:00,-999
2013-03-10,17:00,-999
2013-03-10,18:00,-999
2013-03-10,19:00,-999
2013-03-10,20:00,-999
2013-03-10,21:00,-999
2013-03-10,22:00,1081.03
2013-03-10,23:00,1141.79
2013-03-11,00:00,1155.9
2013-03-11,01:00,1156.98
2013-03-11,02:00,1161.32
2013-03-11,03:00,1162.41
2013-03-11,04:00,1164.58
2013-03-11,05:00,1164.58
2013-03-11,06:00,1165.66
2013-03-11,07:00,1163.49
2013-03-11,08:00,1119
2013-03-11,09:00,1039.79
2013-03-11,10:00,865.1
2013-03-11,11:00,-999
2013-03-11,12:00,-999
2013-03-11,13:00,-999
2013-03-11,14:00,-999
2013-03-11,15:00,-999
2013-03-11,16:00,-999
2013-03-11,17:00,-999
2013-03-11,18:00,-999
2013-03-11,19:00,-999
2013-03-11,20:00,-999
2013-03-11,21:00,854.25
2013-03-11,22:00,1137.45
2013-03-11,23:00,1160.24
2013-03-12,00:00,1165.66
2013-03-12,01:00,1165.66
2013-03-12,02:00,1171.09
2013-03-12,03:00,1175.43
2013-03-12,04:00,1173.26
2013-03-12,05:00,1172.17
2013-03-12,06:00,1167.83
2013-03-12,07:00,1168.92
2013-03-12,08:00,1127.69
2013-03-12,09:00,1044.14
2013-03-12,10:00,-999
2013-03-12,11:00,-999
2013-03-12,12:00,-999
2013-03-12,13:00,-999
2013-03-12,14:00,-999
2013-03-12,15:00,-999
2013-03-12,16:00,-999
2013-03-12,17:00,-999
2013-03-12,18:00,-999
2013-03-12,19:00,-999
2013-03-12,20:00,861.84
2013-03-12,21:00,1125.52
2013-03-12,22:00,1162.41
2013-03-12,23:00,1174.34
2013-03-13,00:00,1177.6
2013-03-13,01:00,1177.6
2013-03-13,02:00,1179.77
2013-03-13,03:00,1179.77
2013-03-13,04:00,1176.51
2013-03-13,05:00,1178.68
2013-03-13,06:00,1178.68
2013-03-13,07:00,1176.51
2013-03-13,08:00,1130.94
2013-03-13,09:00,1063.67
2013-03-13,10:00,-999
2013-03-13,11:00,-999
2013-03-13,12:00,-999
2013-03-13,13:00,-999
2013-03-13,14:00,-999
2013-03-13,15:00,-999
2013-03-13,16:00,-999
2013-03-13,17:00,-999
2013-03-13,18:00,-999
2013-03-13,19:00,-999
2013-03-13,20:00,-999
2013-03-13,21:00,-999
2013-03-13,22:00,-999
2013-03-13,23:00,866.18
2013-03-14,00:00,1115.75
2013-03-14,01:00,1168.92
2013-03-14,02:00,1184.11
2013-03-14,03:00,1184.11
2013-03-14,04:00,1187.36
2013-03-14,05:00,1183.02
2013-03-14,06:00,1183.02
2013-03-14,07:00,1179.77
2013-03-14,08:00,1115.75
2013-03-14,09:00,1035.45
2013-03-14,10:00,-999
2013-03-14,11:00,-999
2013-03-14,12:00,-999
2013-03-14,13:00,-999
2013-03-14,14:00,-999
2013-03-14,15:00,-999
2013-03-14,16:00,-999
2013-03-14,17:00,-999
2013-03-14,18:00,-999
2013-03-14,19:00,-999
2013-03-14,20:00,-999
2013-03-14,21:00,1015.92
2013-03-14,22:00,996.39
2013-03-14,23:00,1098.39
2013-03-15,00:00,1137.45
2013-03-15,01:00,1052.82
2013-03-15,02:00,1109.24
2013-03-15,03:00,1113.58
2013-03-15,04:00,1140.71
2013-03-15,05:00,1149.39
2013-03-15,06:00,1155.9
2013-03-15,07:00,1147.22
2013-03-15,08:00,1071.26
2013-03-15,09:00,971.44
2013-03-15,10:00,895.48
2013-03-15,11:00,-999
2013-03-15,12:00,-999
2013-03-15,13:00,-999
2013-03-15,14:00,-999
2013-03-15,15:00,-999
2013-03-15,16:00,-999
2013-03-15,17:00,-999
2013-03-15,18:00,943.22
2013-03-15,19:00,1011.58
2013-03-15,20:00,891.14
2013-03-15,21:00,962.75
2013-03-15,22:00,1006.16
2013-03-15,23:00,1078.86
2013-03-16,00:00,1139.62
2013-03-16,01:00,1142.88
2013-03-16,02:00,1160.24
2013-03-16,03:00,1166.75
2013-03-16,04:00,1173.26
2013-03-16,05:00,1176.51
2013-03-16,06:00,1181.94
2013-03-16,07:00,1175.43
2013-03-16,08:00,1107.07
2013-03-16,09:00,1022.43
2013-03-16,10:00,933.46
2013-03-16,11:00,-999
2013-03-16,12:00,-999
2013-03-16,13:00,-999
2013-03-16,14:00,-999
2013-03-16,15:00,-999
2013-03-16,16:00,-999
2013-03-16,17:00,-999
2013-03-16,18:00,928.03
2013-03-16,19:00,980.12
2013-03-16,20:00,1044.14
2013-03-16,21:00,1066.92
2013-03-16,22:00,1124.43
2013-03-16,23:00,1124.43
2013-03-17,00:00,1155.9
2013-03-17,01:00,1168.92
2013-03-17,02:00,1175.43
2013-03-17,03:00,1181.94
2013-03-17,04:00,1187.36
2013-03-17,05:00,1189.53
2013-03-17,06:00,1188.45
2013-03-17,07:00,1183.02
2013-03-17,08:00,1140.71
2013-03-17,09:00,1072.35
2013-03-17,10:00,886.8
2013-03-17,11:00,-999
2013-03-17,12:00,-999
2013-03-17,13:00,-999
2013-03-17,14:00,-999
2013-03-17,15:00,-999
2013-03-17,16:00,-999
2013-03-17,17:00,-999
2013-03-17,18:00,-999
2013-03-17,19:00,-999
2013-03-17,20:00,-999
2013-03-17,21:00,1089.71
2013-03-17,22:00,1149.39
2013-03-17,23:00,1164.58
2013-03-18,00:00,1161.32
2013-03-18,01:00,1178.68
2013-03-18,02:00,1184.11
2013-03-18,03:00,1187.36
2013-03-18,04:00,1188.45
2013-03-18,05:00,1188.45
2013-03-18,06:00,1186.28
2013-03-18,07:00,1181.94
2013-03-18,08:00,1147.22
2013-03-18,09:00,1041.96
2013-03-18,10:00,899.82
2013-03-18,11:00,-999
2013-03-18,12:00,-999
2013-03-18,13:00,-999
2013-03-18,14:00,-999
2013-03-18,15:00,-999
2013-03-18,16:00,-999
2013-03-18,17:00,-999
2013-03-18,18:00,-999
2013-03-18,19:00,880.29
2013-03-18,20:00,1109.24
2013-03-18,21:00,1108.15
2013-03-18,22:00,1108.15
2013-03-18,23:00,1130.94
2013-03-19,00:00,1159.15
2013-03-19,01:00,1173.26
2013-03-19,02:00,1173.26
2013-03-19,03:00,1184.11
2013-03-19,04:00,1186.28
2013-03-19,05:00,1186.28
2013-03-19,06:00,1186.28
2013-03-19,07:00,1185.19
2013-03-19,08:00,1121.18
2013-03-19,09:00,1090.79
2013-03-19,10:00,980.12
2013-03-19,11:00,-999
2013-03-19,12:00,-999
2013-03-19,13:00,-999
2013-03-19,14:00,-999
2013-03-19,15:00,-999
2013-03-19,16:00,-999
2013-03-19,17:00,-999
2013-03-19,18:00,-999
2013-03-19,19:00,-999
2013-03-19,20:00,1073.43
2013-03-19,21:00,1133.11
2013-03-19,22:00,1152.64
2013-03-19,23:00,1179.77
2013-03-20,00:00,1187.36
2013-03-20,01:00,1184.11
2013-03-20,02:00,1189.53
2013-03-20,03:00,1189.53
2013-03-20,04:00,1180.85
2013-03-20,05:00,1026.77
2013-03-20,06:00,1160.24
2013-03-20,07:00,1170
2013-03-20,08:00,1146.13
2013-03-20,09:00,1107.07
2013-03-20,10:00,963.84
2013-03-20,11:00,909.59
2013-03-20,12:00,-999
2013-03-20,13:00,-999
2013-03-20,14:00,-999
2013-03-20,15:00,-999
2013-03-20,16:00,-999
2013-03-20,17:00,-999
2013-03-20,18:00,-999
2013-03-20,19:00,-999
2013-03-20,20:00,973.61
2013-03-20,21:00,1094.05
2013-03-20,22:00,1155.9
2013-03-20,23:00,1164.58
2013-03-21,00:00,1166.75
2013-03-21,01:00,1170
2013-03-21,02:00,1175.43
2013-03-21,03:00,1175.43
2013-03-21,04:00,1176.51
2013-03-21,05:00,1175.43
2013-03-21,06:00,1049.56
2013-03-21,07:00,1102.73
2013-03-21,08:00,1132.03
2013-03-21,09:00,1101.64
2013-03-21,10:00,1019.18
2013-03-21,11:00,900.91
2013-03-21,12:00,854.25
2013-03-21,13:00,-999
2013-03-21,14:00,-999
2013-03-21,15:00,-999
2013-03-21,16:00,-999
2013-03-21,17:00,-999
2013-03-21,18:00,-999
2013-03-21,19:00,898.74
2013-03-21,20:00,1048.48
2013-03-21,21:00,1089.71
2013-03-21,22:00,1132.03
2013-03-21,23:00,1135.28
2013-03-22,00:00,1139.62
2013-03-22,01:00,1148.3
2013-03-22,02:00,1158.07
2013-03-22,03:00,1164.58
2013-03-22,04:00,1164.58
2013-03-22,05:00,1168.92
2013-03-22,06:00,1174.34
2013-03-22,07:00,1166.75
2013-03-22,08:00,1123.35
2013-03-22,09:00,1061.5
2013-03-22,10:00,992.05
2013-03-22,11:00,856.42
2013-03-22,12:00,-999
2013-03-22,13:00,-999
2013-03-22,14:00,-999
2013-03-22,15:00,-999
2013-03-22,16:00,-999
2013-03-22,17:00,-999
2013-03-22,18:00,-999
2013-03-22,19:00,-999
2013-03-22,20:00,-999
2013-03-22,21:00,968.18
2013-03-22,22:00,1116.83
2013-03-22,23:00,1154.81
2013-03-23,00:00,1161.32
2013-03-23,01:00,1165.66
2013-03-23,02:00,1173.26
2013-03-23,03:00,1177.6
2013-03-23,04:00,1180.85
2013-03-23,05:00,1179.77
2013-03-23,06:00,1180.85
2013-03-23,07:00,1168.92
2013-03-23,08:00,1136.37
2013-03-23,09:00,1095.13
2013-03-23,10:00,935.63
2013-03-23,11:00,-999
2013-03-23,12:00,-999
2013-03-23,13:00,-999
2013-03-23,14:00,-999
2013-03-23,15:00,-999
2013-03-23,16:00,-999
2013-03-23,17:00,-999
2013-03-23,18:00,-999
2013-03-23,19:00,-999
2013-03-23,20:00,-999
2013-03-23,21:00,-999
2013-03-23,22:00,-999
2013-03-23,23:00,984.46
2013-03-24,00:00,1145.05
2013-03-24,01:00,1170
2013-03-24,02:00,1174.34
2013-03-24,03:00,1181.94
2013-03-24,04:00,1181.94
2013-03-24,05:00,1179.77
2013-03-24,06:00,1174.34
2013-03-24,07:00,1173.26
2013-03-24,08:00,1142.88
2013-03-24,09:00,1075.6
2013-03-24,10:00,935.63
2013-03-24,11:00,-999
2013-03-24,12:00,-999
2013-03-24,13:00,-999
2013-03-24,14:00,-999
2013-03-24,15:00,-999
2013-03-24,16:00,-999
2013-03-24,17:00,-999
2013-03-24,18:00,-999
2013-03-24,19:00,-999
2013-03-24,20:00,962.75
2013-03-24,21:00,964.93
2013-03-24,22:00,1132.03
2013-03-24,23:00,1164.58
2013-03-25,00:00,1171.09
2013-03-25,01:00,1176.51
2013-03-25,02:00,1183.02
2013-03-25,03:00,1185.19
2013-03-25,04:00,1185.19
2013-03-25,05:00,1186.28
2013-03-25,06:00,1186.28
2013-03-25,07:00,1184.11
2013-03-25,08:00,1168.92
2013-03-25,09:00,1123.35
2013-03-25,10:00,1009.41
2013-03-25,11:00,-999
2013-03-25,12:00,-999
2013-03-25,13:00,-999
2013-03-25,14:00,-999
2013-03-25,15:00,-999
2013-03-25,16:00,-999
2013-03-25,17:00,-999
2013-03-25,18:00,-999
2013-03-25,19:00,-999
2013-03-25,20:00,-999
2013-03-25,21:00,1090.79
2013-03-25,22:00,1163.49
2013-03-25,23:00,1177.6
2013-03-26,00:00,1184.11
2013-03-26,01:00,1183.02
2013-03-26,02:00,1180.85
2013-03-26,03:00,1183.02
2013-03-26,04:00,1185.19
2013-03-26,05:00,1176.51
2013-03-26,06:00,1178.68
2013-03-26,07:00,1179.77
2013-03-26,08:00,1151.56
2013-03-26,09:00,1102.73
2013-03-26,10:00,-999
2013-03-26,11:00,-999
2013-03-26,12:00,-999
2013-03-26,13:00,-999
2013-03-26,14:00,-999
2013-03-26,15:00,-999
2013-03-26,16:00,-999
2013-03-26,17:00,-999
2013-03-26,18:00,-999
2013-03-26,19:00,-999
2013-03-26,20:00,-999
2013-03-26,21:00,-999
2013-03-26,22:00,1119
2013-03-26,23:00,1170
2013-03-27,00:00,1175.43
2013-03-27,01:00,1172.17
2013-03-27,02:00,1179.77
2013-03-27,03:00,1180.85
2013-03-27,04:00,1177.6
2013-03-27,05:00,1174.34
2013-03-27,06:00,1127.69
2013-03-27,07:00,1167.83
2013-03-27,08:00,1142.88
2013-03-27,09:00,1060.41
2013-03-27,10:00,911.76
2013-03-27,11:00,-999
2013-03-27,12:00,-999
2013-03-27,13:00,-999
2013-03-27,14:00,-999
2013-03-27,15:00,-999
2013-03-27,16:00,-999
2013-03-27,17:00,-999
2013-03-27,18:00,-999
2013-03-27,19:00,-999
2013-03-27,20:00,-999
2013-03-27,21:00,-999
2013-03-27,22:00,1134.2
2013-03-27,23:00,1168.92
2013-03-28,00:00,1173.26
2013-03-28,01:00,1178.68
2013-03-28,02:00,1180.85
2013-03-28,03:00,1170
2013-03-28,04:00,1165.66
2013-03-28,05:00,1018.09
2013-03-28,06:00,1089.71
2013-03-28,07:00,1152.64
2013-03-28,08:00,1132.03
2013-03-28,09:00,1096.22
2013-03-28,10:00,1019.18
2013-03-28,11:00,860.76
2013-03-28,12:00,-999
2013-03-28,13:00,-999
2013-03-28,14:00,-999
2013-03-28,15:00,-999
2013-03-28,16:00,-999
2013-03-28,17:00,-999
2013-03-28,18:00,-999
2013-03-28,19:00,-999
2013-03-28,20:00,-999
2013-03-28,21:00,1079.94
2013-03-28,22:00,1127.69
2013-03-28,23:00,1142.88
2013-03-29,00:00,1146.13
2013-03-29,01:00,1148.3
2013-03-29,02:00,1158.07
2013-03-29,03:00,1162.41
2013-03-29,04:00,1168.92
2013-03-29,05:00,1174.34
2013-03-29,06:00,1174.34
2013-03-29,07:00,1171.09
2013-03-29,08:00,1142.88
2013-03-29,09:00,1116.83
2013-03-29,10:00,986.63
2013-03-29,11:00,-999
2013-03-29,12:00,-999
2013-03-29,13:00,-999
2013-03-29,14:00,-999
2013-03-29,15:00,-999
2013-03-29,16:00,-999
2013-03-29,17:00,-999
2013-03-29,18:00,-999
2013-03-29,19:00,-999
2013-03-29,20:00,907.42
2013-03-29,21:00,1023.52
2013-03-29,22:00,1123.35
2013-03-29,23:00,1143.96
2013-03-30,00:00,1155.9
2013-03-30,01:00,1168.92
2013-03-30,02:00,1168.92
2013-03-30,03:00,1175.43
2013-03-30,04:00,1176.51
2013-03-30,05:00,1175.43
2013-03-30,06:00,1174.34
2013-03-30,07:00,1174.34
2013-03-30,08:00,1143.96
2013-03-30,09:00,1051.73
2013-03-30,10:00,1007.24
2013-03-30,11:00,-999
2013-03-30,12:00,-999
2013-03-30,13:00,-999
2013-03-30,14:00,-999
2013-03-30,15:00,-999
2013-03-30,16:00,-999
2013-03-30,17:00,-999
2013-03-30,18:00,-999
2013-03-30,19:00,-999
2013-03-30,20:00,968.18
2013-03-30,21:00,1103.81
2013-03-30,22:00,1158.07
2013-03-30,23:00,1166.75
2013-03-31,00:00,1170
2013-03-31,01:00,1170
2013-03-31,02:00,1178.68
2013-03-31,03:00,1181.94
2013-03-31,04:00,1180.85
2013-03-31,05:00,1178.68
2013-03-31,06:00,1180.85
2013-03-31,07:00,1177.6
2013-03-31,08:00,1137.45
2013-03-31,09:00,1094.05
2013-03-31,10:00,979.03
2013-03-31,11:00,-999
2013-03-31,12:00,-999
2013-03-31,13:00,-999
2013-03-31,14:00,-999
2013-03-31,15:00,-999
2013-03-31,16:00,-999
2013-03-31,17:00,-999
2013-03-31,18:00,-999
2013-03-31,19:00,-999
2013-03-31,20:00,-999
2013-03-31,21:00,1001.82
2013-03-31,22:00,1154.81
2013-03-31,23:00,1171.09
